SL-14 DEB

Satellite information

Favourite Embed

Satellite Type and Status

DEBRISIN ORBIT

Key statistics

Satellite SL-14 DEB at a glance.

Uptime

12382

Days in orbit

Revolutions

≈ 14.0

Per day

Orbit

LEO

Low Earth Orbit

Inclination

82.5

Latest

Satellite identification and parameters

Extended collection of information and parameters for SL-14 DEB.

Object identification

Identified? True

Debris? True

Object name: SL-14 DEB

International designator: 1991-056DE

Object number (NORAD): 47080

Object ID (CCSDS): 47080

Country: COMMONWEALTH OF INDEPENDENT STATES (CIS)

Current information (Y/N): Y

RCS size: SMALL

Orbital parameters

Period: 102.964 minutes

Inclination: 82.5072 deg

SMA: 7276.985 km

Apoapsis: 1019.19 km

Periapsis: 778.509 km

RAAN: 244.7409 deg

Eccentricy: 0.0165371

Argument of periapsis: 80.6032 deg

Mean anomaly: 281.3789 deg

Mean motion: 13.98542211 rev/day

Mean motion (dot): 0.00008801 rev/day2

B* drag term: 0.005452 1/REarth

Two-line elements (TLE)

Creation date: July 8, 2025, 2:27 a.m.

Reference frame: TEME

Reference center: EARTH

Epoch: July 7, 2025, 9:25 p.m. UTC

TLE line 0: 0 SL-14 DEB

TLE line 1: 1 47080U 91056DE 25188.89248660 .00008801 00000-0 54520-2 0 9992

TLE line 2: 2 47080 82.5072 244.7409 0165371 80.6032 281.3789 13.98542211233661

Live tracking on map

Real-time ground track for satellite SL-14 DEB.

In-orbit conjunctions

A list of the most updated potential collisions computed for object SL-14 DEB.

Target Orbit TCA Probability of collision Miss distance Type
SL-8 R/B LEO 2025-01-28 23:25:39 0.0002442865 114.0 (m) ROCKET BODY
SL-8 R/B LEO 2024-11-10 20:49:50 0.000217706 384.0 (m) ROCKET BODY

Associated space launch

Third generation meteorological satellite

SL-14 DEB was lifted into orbit during the mission ‘Tsiklon-3 | Meteor-3 5’, on board a Tsiklon-3 space rocket.

The launch took place on Aug. 15, 1991, 9:15 a.m. from 32/2.

For more information about the launch, click the button.

Launch to space Tsiklon-3 | Meteor-3 5
Tsiklon-3 | Meteor-3 5

Agency: N/A

Status: Launch Successful

Launch date: Aug. 15, 1991, 9:15 a.m. UTC

Rocket: Tsiklon-3

Launch pad: 32/2

Location: Plesetsk Cosmodrome, Russian Federation

...

Latest news about this satellite

There are no fresh news available about this satellite. Check back as we update our databases every day.


Newsletter sign-up

Weekly statistics, charts and insights to help you stay on top of the space industry.